Bellingham, WA
on Saturday, December 1, 2012

Saturday
Previous Day Next Day
Daily Summary
 ActualAverageRecord
Temperature
Mean Temperature °F 40°F  
Max Temperature 53°F 46°F 61°F (1958)
Min Temperature 48°F 34°F 19°F (1985)
Degree Days
Heating Degree Days 14 25  
Month to date heating degree days 25  
Cooling Degree Days 0 0  
Month to date cooling degree days 0  
Year to date cooling degree days 42  
Moisture
Dew Point 42°F   
Average Humidity 73    
Maximum Humidity 86    
Minimum Humidity 59    
Precipitation
Precipitation 0.04 in 0.17 in 1.30 in (1949)
Month to date precipitation 0.17  
Year to date precipitation 31.78  
Wind
Wind Speed 20 mph   
Max Wind Speed 29 mph   
Max Gust Speed 41 mph   
Visibility 10 miles   
Events Rain   

Key: T is trace of precipitation, MM is missing value
Source: NWS Daily Summary
Time(PST)TemperatureDew PointHumidity Pressure Visibility Wind DirectionWind SpeedGust SpeedPrecipitationEvents Conditions
12:53 AM 50.0°F 44.1°F 80% 29.37 in 10.0 miles SE 17.3 mph - 0.00 in Rain Light Rain
1:48 AM 51.8°F 44.6°F 76% 29.32 in 10.0 miles ESE 18.4 mph 26.5 mph 0.00 in   Overcast
1:53 AM 51.1°F 44.1°F 77% 29.33 in 10.0 miles SE 18.4 mph 26.5 mph 0.00 in   Overcast
2:26 AM 53.6°F 44.6°F 72% 29.30 in 10.0 miles SE 25.3 mph 36.8 mph N/A   Overcast
2:53 AM 52.0°F 44.1°F 74% 29.33 in 8.0 miles SSE 28.8 mph 41.4 mph 0.00 in Rain Light Rain
3:53 AM 51.1°F 44.1°F 77% 29.33 in 6.0 miles SSE 23.0 mph 40.3 mph 0.02 in Rain Light Rain
4:53 AM 51.1°F 44.1°F 77% 29.36 in 10.0 miles SSE 24.2 mph 39.1 mph 0.00 in Rain Light Rain
5:09 AM 50.0°F 44.6°F 82% 29.36 in 7.0 miles SSE 23.0 mph 38.0 mph 0.01 in Rain Light Rain
5:27 AM 50.0°F 44.6°F 82% 29.39 in 10.0 miles South 20.7 mph 36.8 mph 0.01 in Rain Light Rain
5:40 AM 50.0°F 44.6°F 82% 29.40 in 8.0 miles SSE 17.3 mph 27.6 mph 0.01 in Rain Light Rain
5:53 AM 50.0°F 45.0°F 83% 29.43 in 10.0 miles South 19.6 mph 29.9 mph 0.01 in Rain Light Rain
6:25 AM 50.0°F 44.6°F 82% 29.45 in 10.0 miles South 15.0 mph 23.0 mph 0.00 in   Overcast
6:53 AM 50.0°F 44.6°F 82% 29.48 in 10.0 miles SSE 17.3 mph 27.6 mph N/A   Overcast
7:53 AM 48.9°F 45.0°F 86% 29.54 in 7.0 miles SSE 10.4 mph 20.7 mph 0.00 in Rain Light Rain
8:53 AM 48.9°F 43.0°F 80% 29.56 in 10.0 miles SSE 15.0 mph 23.0 mph 0.00 in   Overcast
9:53 AM 50.0°F 42.1°F 74% 29.57 in 10.0 miles SSE 18.4 mph 27.6 mph N/A   Overcast
10:53 AM 51.1°F 41.0°F 68% 29.55 in 10.0 miles SSE 24.2 mph 36.8 mph N/A   Overcast
11:53 AM 51.1°F 39.9°F 66% 29.54 in 10.0 miles SSE 28.8 mph 39.1 mph N/A   Overcast
12:53 PM 51.1°F 39.9°F 66% 29.54 in 10.0 miles SSE 24.2 mph 36.8 mph N/A   Overcast
1:11 PM 51.8°F 39.2°F 62% 29.52 in 10.0 miles SSE 21.9 mph 36.8 mph N/A   Overcast
1:29 PM 51.8°F 39.2°F 62% 29.51 in 10.0 miles SSE 20.7 mph 33.4 mph 0.00 in Rain Light Rain
1:53 PM 51.1°F 41.0°F 68% 29.53 in 10.0 miles SSE 19.6 mph 34.5 mph 0.00 in Rain Light Rain
2:53 PM 53.1°F 41.0°F 64% 29.52 in 10.0 miles SSE 19.6 mph 39.1 mph 0.00 in   Overcast
3:53 PM 51.1°F 42.1°F 71% 29.52 in 8.0 miles SSE 26.5 mph 39.1 mph 0.00 in Rain Light Rain
4:53 PM 51.1°F 42.1°F 71% 29.52 in 10.0 miles SSE 16.1 mph 29.9 mph 0.00 in   Overcast
5:53 PM 51.1°F 41.0°F 68% 29.51 in 10.0 miles South 16.1 mph 32.2 mph N/A   Overcast
6:53 PM 50.0°F 42.1°F 74% 29.49 in 10.0 miles SSE 15.0 mph 27.6 mph 0.00 in Rain Light Rain
7:53 PM 48.9°F 41.0°F 74% 29.45 in 10.0 miles SE 16.1 mph 21.9 mph 0.01 in Rain Light Rain
8:53 PM 48.9°F 39.9°F 71% 29.42 in 10.0 miles SE 12.7 mph - 0.00 in   Scattered Clouds
9:53 PM 51.1°F 37.0°F 59% 29.39 in 10.0 miles SE 15.0 mph - N/A   Overcast
10:53 PM 50.0°F 37.9°F 63% 29.35 in 10.0 miles SE 20.7 mph 33.4 mph N/A   Scattered Clouds
11:53 PM 50.0°F 37.9°F 63% 29.31 in 10.0 miles SE 9.2 mph - N/A   Overcast
Moon Phase
Dec. 01 Dec. 06 Dec. 13 Dec. 20 Dec. 28
Sunrise:07:42 AM (PST) Moon Rise:07:15 PM (PST)12/1
Sunset:04:15 PM (PST) Moon Set:09:55 AM (PST)12/1

Copyright © 2014 The Weather Underground, Inc.